Estación de El Tambo INIA
Ultimos registro cada 15 minutos 35
| N° | Estación | Fecha / Hora | Temperatura | Humedad | Lluvia | Velocidad | Dirección | Radiación | Presion |
| 35 | El Tambo INIA | 07-05-2026 08:30 | 9,5 | 95,5 | 0 | 0,1 | 112 | 50 | 996 |
| 34 | El Tambo INIA | 07-05-2026 08:15 | 9,1 | 98,1 | 0 | 0 | 318 | 24 | 995 |
| 33 | El Tambo INIA | 07-05-2026 08:00 | 8,9 | 97,9 | 0 | 0 | 0 | 12 | 995 |
| 32 | El Tambo INIA | 07-05-2026 07:45 | 8,7 | 98 | 0 | 0,4 | 126 | 5 | 995 |
| 31 | El Tambo INIA | 07-05-2026 07:30 | 8,8 | 94,2 | 0 | 0,7 | 68 | 2 | 995 |
| 30 | El Tambo INIA | 07-05-2026 07:15 | 9 | 97 | 0 | 0,1 | 72 | 0 | 995 |
| 29 | El Tambo INIA | 07-05-2026 07:00 | 9,4 | 95,8 | 0 | 0 | 256 | 0 | 995 |
| 28 | El Tambo INIA | 07-05-2026 06:45 | 9,5 | 95 | 0 | 0,4 | 146 | 0 | 995 |
| 27 | El Tambo INIA | 07-05-2026 06:30 | 9,4 | 93,3 | 0 | 0,3 | 135 | 0 | 995 |
| 26 | El Tambo INIA | 07-05-2026 06:15 | 9,7 | 94,4 | 0 | 0,2 | 89 | 0 | 995 |
| 25 | El Tambo INIA | 07-05-2026 06:00 | 10 | 95,7 | 0 | 0 | 0 | 0 | 994 |
| 24 | El Tambo INIA | 07-05-2026 05:45 | 10,1 | 95,7 | 0 | 0 | 247 | 0 | 994 |
| 23 | El Tambo INIA | 07-05-2026 05:30 | 10,1 | 95,8 | 0 | 0,1 | 176 | 0 | 994 |
| 22 | El Tambo INIA | 07-05-2026 05:15 | 10,1 | 95,7 | 0 | 0,6 | 157 | 0 | 994 |
| 21 | El Tambo INIA | 07-05-2026 05:00 | 10,1 | 90,3 | 0 | 1 | 90 | 0 | 994 |
| 20 | El Tambo INIA | 07-05-2026 04:45 | 10,2 | 92 | 0 | 0,5 | 117 | 0 | 993 |
| 19 | El Tambo INIA | 07-05-2026 04:30 | 10,4 | 93,1 | 0 | 0 | 266 | 0 | 994 |
| 18 | El Tambo INIA | 07-05-2026 04:15 | 10,4 | 90,7 | 0 | 0,3 | 98 | 0 | 993 |
| 17 | El Tambo INIA | 07-05-2026 04:00 | 10,4 | 95,1 | 0 | 0,4 | 216 | 0 | 993 |
| 16 | El Tambo INIA | 07-05-2026 03:45 | 10,4 | 96,4 | 0 | 0,3 | 131 | 0 | 993 |
| 15 | El Tambo INIA | 07-05-2026 03:30 | 10,4 | 96,3 | 0 | 0,4 | 184 | 0 | 993 |
| 14 | El Tambo INIA | 07-05-2026 03:15 | 10,4 | 96,9 | 0 | 0,4 | 198 | 0 | 993 |
| 13 | El Tambo INIA | 07-05-2026 03:00 | 10,6 | 96,7 | 0 | 0,7 | 178 | 0 | 993 |
| 12 | El Tambo INIA | 07-05-2026 02:45 | 10,7 | 96 | 0 | 0,7 | 103 | 0 | 993 |
| 11 | El Tambo INIA | 07-05-2026 02:30 | 10,7 | 95 | 0 | 0,9 | 94 | 0 | 993 |
| 10 | El Tambo INIA | 07-05-2026 02:15 | 10,8 | 94,7 | 0 | 1 | 59 | 0 | 993 |
| 9 | El Tambo INIA | 07-05-2026 02:00 | 10,8 | 95,2 | 0 | 0,7 | 331 | 0 | 993 |
| 8 | El Tambo INIA | 07-05-2026 01:45 | 10,9 | 95,6 | 0 | 0 | 299 | 0 | 993 |
| 7 | El Tambo INIA | 07-05-2026 01:30 | 10,9 | 96,3 | 0 | 0 | 140 | 0 | 993 |
| 6 | El Tambo INIA | 07-05-2026 01:15 | 10,9 | 95,8 | 0 | 0 | 314 | 0 | 993 |
| 5 | El Tambo INIA | 07-05-2026 01:00 | 10,9 | 95,2 | 0 | 0 | 354 | 0 | 993 |
| 4 | El Tambo INIA | 07-05-2026 00:45 | 10,9 | 96,2 | 0 | 0,1 | 304 | 0 | 993 |
| 3 | El Tambo INIA | 07-05-2026 00:30 | 10,9 | 96,4 | 0 | 0 | 344 | 0 | 993 |
| 2 | El Tambo INIA | 07-05-2026 00:15 | 10,9 | 95,8 | 0,1 | 0 | 308 | 0 | 993 |
| 1 | El Tambo INIA | 07-05-2026 00:00 | 10,9 | 95 | 0 | 0,3 | 251 | 0 | 992 |